Location: Agendoh
(31.0664°N, 8.9343°W)
Time: 09:00:51
(UTC+00:00)

NOAA 12 - Pass Details

Date: 06 December 2021
Orbit: 795 x 815 km, 98.5° (Epoch: 24 January)

Event Time Altitude Azimuth Distance (km) Brightness Sun altitude
Rises 06:35:34 0° 10° (N) 3,313 7.2 -9.6°
Reaches altitude 10° 06:37:55 10° 10° (N) 2,377 6.4 -9.2°
Maximum altitude 06:43:10 79° 284° (WNW) 813 4.0 -8.1°
Drops below altitude 10° 06:48:22 10° 198° (SSW) 2,355 6.6 -7.1°
Sets 06:50:40 0° 197° (SSW) 3,281 7.3 -6.6°
